CT1AKV-10 Estrada Real PT current weather conditions

sailwx.info

Wind from 017 at 4 knots gusting 10

Air temperature 27.8° C
Dewpoint -6.6° C

Last reported at 2016-Sep-27 09:45 UTC.
Time now 2016-Sep-27 10:27 UTC

Location: N 39°11' W 008°44'.
View on Google Maps.

See reports from other nearby stations

  
Tides and Currents Weather Stations Pressure Air Temp Water Temp Dewpoint Dewpoint Depression Visibility Wind Speed Wind Dir Waves Ship Positions
date/time (UTC)wind fromknots sea level pressurealtimeterstation pressurevisibilityair tempwater tempwave heightnotes
2016-Sep-27 09:45 017 4 gusting 10 27.8
2016-Sep-27 09:30 014 3 gusting 8 27.2
2016-Sep-27 09:15 008 2 gusting 7 27.2
2016-Sep-27 09:00 011 0 gusting 3 27.2
2016-Sep-27 08:45 030 0 gusting 3 26.1
2016-Sep-27 08:30 065 0 gusting 3 24.4
2016-Sep-27 08:15 030 0 gusting 3 21.7
2016-Sep-27 08:00 002 1 gusting 4 18.9
2016-Sep-27 07:45 330 0 gusting 3 17.8
2016-Sep-27 07:30 344 1 gusting 5 17.2
2016-Sep-27 07:15 331 0 gusting 3 16.1
2016-Sep-27 07:00 308 15.0
2016-Sep-27 06:45 15.0
2016-Sep-27 06:30 15.0
2016-Sep-27 06:15 301 15.0
2016-Sep-27 06:00 15.6
2016-Sep-27 05:45 071 16.7
2016-Sep-27 05:30 017 0 gusting 3 17.2
2016-Sep-27 05:15 004 1 gusting 4 17.8
2016-Sep-27 05:00 005 1 gusting 6 17.8
2016-Sep-27 04:45 001 1 gusting 7 17.8
2016-Sep-27 04:30 353 3 gusting 9 17.8
2016-Sep-27 04:15 350 2 gusting 8 17.8
2016-Sep-27 04:00 354 2 gusting 6 17.2
2016-Sep-27 03:45 002 0 gusting 4 17.2
2016-Sep-27 03:30 005 1 gusting 3 17.2
2016-Sep-27 03:15 349 1 gusting 5 17.2
2016-Sep-27 03:00 342 1 gusting 5 17.2
2016-Sep-27 02:45 331 1 gusting 5 17.2
2016-Sep-27 02:30 350 0 gusting 5 17.8
2016-Sep-27 02:15 308 2 gusting 6 17.8
2016-Sep-27 02:00 327 2 gusting 8 17.8
2016-Sep-27 01:45 345 4 gusting 12 17.8
2016-Sep-27 01:30 323 4 gusting 9 18.3
2016-Sep-27 01:15 307 4 gusting 9 18.3
2016-Sep-27 01:00 329 4 gusting 11 18.3
2016-Sep-27 00:45 338 4 gusting 12 18.3
2016-Sep-27 00:30 326 5 gusting 13 18.3
2016-Sep-27 00:15 356 4 gusting 10 18.9
2016-Sep-27 00:00 334 5 gusting 14 18.9
2016-Sep-26 23:45 337 5 gusting 12 18.9
2016-Sep-26 23:30 318 4 gusting 10 18.9
2016-Sep-26 23:15 308 2 gusting 7 18.3
2016-Sep-26 23:00 316 1 gusting 5 18.3
2016-Sep-26 22:45 314 2 gusting 6 18.3
2016-Sep-26 22:30 320 2 gusting 6 17.8
2016-Sep-26 22:15 344 3 gusting 7 17.8
2016-Sep-26 22:00 341 2 gusting 6 17.8
2016-Sep-26 21:45 321 1 gusting 6 18.3
2016-Sep-26 21:30 318 2 gusting 7 18.9
2016-Sep-26 21:15 337 2 gusting 9 18.9
2016-Sep-26 21:00 332 2 gusting 8 18.9
2016-Sep-26 20:45 339 2 gusting 7 18.9
2016-Sep-26 20:30 339 3 gusting 9 19.4
2016-Sep-26 20:15 340 2 gusting 6 19.4
2016-Sep-26 20:00 323 2 gusting 7 19.4
2016-Sep-26 19:45 315 3 gusting 8 19.4
2016-Sep-26 19:30 334 4 gusting 9 20.0
2016-Sep-26 19:15 324 5 gusting 12 20.0
2016-Sep-26 19:00 324 3 gusting 9 20.6
2016-Sep-26 18:45 315 4 gusting 9 20.6
2016-Sep-26 18:30 334 4 gusting 9 20.6
2016-Sep-26 18:15 289 3 gusting 9 21.7
2016-Sep-26 18:00 316 3 gusting 9 22.8
2016-Sep-26 17:45 322 4 gusting 12 24.4
2016-Sep-26 17:30 319 5 gusting 11 24.4
2016-Sep-26 17:15 324 5 gusting 10 26.1
2016-Sep-26 17:00 347 5 gusting 11 26.7
2016-Sep-26 16:45 313 5 gusting 12 27.2
2016-Sep-26 16:30 302 5 gusting 13 27.2
2016-Sep-26 16:15 323 5 gusting 13 28.3
2016-Sep-26 16:00 318 4 gusting 10 28.3
2016-Sep-26 15:45 332 4 gusting 11 28.3
2016-Sep-26 15:30 318 5 gusting 13 28.3
2016-Sep-26 15:15 335 5 gusting 14 27.8
2016-Sep-26 15:00 320 5 gusting 11 27.8
2016-Sep-26 14:45 324 5 gusting 12 27.2
2016-Sep-26 14:30 293 4 gusting 11 27.8
2016-Sep-26 14:15 314 4 gusting 12 28.3
2016-Sep-26 14:00 280 4 gusting 13 28.3
2016-Sep-26 13:45 325 3 gusting 9 28.9
2016-Sep-26 13:30 326 4 gusting 11 28.3
2016-Sep-26 13:15 346 4 gusting 10 28.3
2016-Sep-26 13:00 310 4 gusting 11 28.3
2016-Sep-26 12:45 297 4 gusting 10 28.9
2016-Sep-26 12:30 310 4 gusting 13 28.3
2016-Sep-26 12:15 333 4 gusting 13 28.3
2016-Sep-26 12:00 349 3 gusting 9 28.9
2016-Sep-26 11:45 337 3 gusting 9 28.3
2016-Sep-26 11:30 340 3 gusting 9 27.8
2016-Sep-26 11:15 336 4 gusting 10 27.2
2016-Sep-26 11:00 334 4 gusting 10 26.7
2016-Sep-26 10:45 345 4 gusting 9 25.6
2016-Sep-26 10:30 014 4 gusting 11 25.0
2016-Sep-26 10:15 336 4 gusting 9 25.0
2016-Sep-26 10:00 344 2 gusting 7 25.0
2016-Sep-26 09:45 313 2 gusting 8 24.4
2016-Sep-26 09:30 323 2 gusting 6 22.8
2016-Sep-26 09:15 318 2 gusting 6 22.2
2016-Sep-26 09:00 322 3 gusting 7 22.2
2016-Sep-26 08:45 327 3 gusting 9 21.7
2016-Sep-26 08:30 313 3 gusting 11 20.0
2016-Sep-26 08:15 328 3 gusting 7 17.8
2016-Sep-26 08:00 323 3 gusting 7 16.7
2016-Sep-26 07:45 333 3 gusting 8 16.1
2016-Sep-26 07:30 309 2 gusting 6 15.6
2016-Sep-26 07:15 327 1 gusting 6 15.6
2016-Sep-26 07:00 320 3 gusting 8 15.0
2016-Sep-26 06:45 307 3 gusting 7 14.4
2016-Sep-26 06:30 320 3 gusting 8 14.4
2016-Sep-26 06:15 307 3 gusting 7 14.4
2016-Sep-26 06:00 325 2 gusting 6 14.4
2016-Sep-26 05:45 292 1 gusting 6 14.4
2016-Sep-26 05:30 307 2 gusting 7 14.4
2016-Sep-26 05:15 300 2 gusting 6 14.4
2016-Sep-26 05:00 318 2 gusting 6 14.4
2016-Sep-26 04:45 306 2 gusting 6 14.4
2016-Sep-26 04:30 314 2 gusting 8 14.4
2016-Sep-26 04:15 283 3 gusting 9 14.4
2016-Sep-26 04:00 319 2 gusting 8 14.4
2016-Sep-26 03:45 309 2 gusting 7 14.4
2016-Sep-26 03:30 292 2 gusting 6 14.4
2016-Sep-26 03:15 295 2 gusting 6 13.9
2016-Sep-26 03:00 292 1 gusting 5 13.9
2016-Sep-26 02:45 293 1 gusting 6 13.9
2016-Sep-26 02:30 294 1 gusting 6 13.9
2016-Sep-26 02:15 299 1 gusting 5 14.4
2016-Sep-26 02:00 311 1 gusting 5 14.4
2016-Sep-26 01:45 318 2 gusting 6 14.4
2016-Sep-26 01:30 312 2 gusting 6 14.4
2016-Sep-26 01:15 301 3 gusting 9 14.4
2016-Sep-26 01:00 304 3 gusting 7 14.4
2016-Sep-26 00:45 313 2 gusting 6 14.4
2016-Sep-26 00:30 298 2 gusting 8 14.4
2016-Sep-26 00:15 294 2 gusting 7 13.9
2016-Sep-26 00:00 321 2 gusting 6 13.9
2016-Sep-25 23:45 293 2 gusting 6 14.4
2016-Sep-25 23:30 298 2 gusting 6 14.4
2016-Sep-25 23:15 296 2 gusting 6 14.4
2016-Sep-25 23:00 305 2 gusting 6 14.4
2016-Sep-25 22:45 280 2 gusting 6 15.0
2016-Sep-25 22:30 309 2 gusting 6 15.0
2016-Sep-25 22:15 297 2 gusting 9 15.6
2016-Sep-25 22:00 294 2 gusting 9 15.6
2016-Sep-25 21:45 317 2 gusting 6 16.1
2016-Sep-25 21:30 295 2 gusting 6 16.1
2016-Sep-25 21:15 308 2 gusting 6 16.7
2016-Sep-25 21:00 290 2 gusting 6 16.7
2016-Sep-25 20:45 313 3 gusting 7 16.7
2016-Sep-25 20:30 307 3 gusting 7 17.2
2016-Sep-25 20:15 309 2 gusting 6 17.2
2016-Sep-25 20:00 308 2 gusting 6 17.2
2016-Sep-25 19:45 306 2 gusting 8 17.8
2016-Sep-25 19:30 328 3 gusting 11 17.8
2016-Sep-25 19:15 314 3 gusting 8 17.8
2016-Sep-25 19:00 317 3 gusting 9 18.3
2016-Sep-25 18:45 319 3 gusting 9 18.3
2016-Sep-25 18:30 322 3 gusting 9 18.9
2016-Sep-25 18:15 312 3 gusting 7 19.4
2016-Sep-25 18:00 301 4 gusting 9 20.0
2016-Sep-25 17:45 312 4 gusting 10 20.6
2016-Sep-25 17:30 299 4 gusting 9 20.6
2016-Sep-25 17:15 324 4 gusting 11 21.7
2016-Sep-25 17:00 327 6 gusting 19 22.2
2016-Sep-25 16:45 316 5 gusting 12 23.3
2016-Sep-25 16:30 275 5 gusting 13 24.4
2016-Sep-25 16:15 306 6 gusting 14 25.6
2016-Sep-25 16:00 292 5 gusting 13 26.7
2016-Sep-25 15:45 309 5 gusting 12 27.2
2016-Sep-25 15:30 306 5 gusting 13 27.8
2016-Sep-25 15:15 315 4 gusting 10 28.3
2016-Sep-25 15:00 315 4 gusting 10 28.9
2016-Sep-25 14:45 329 4 gusting 12 29.4
2016-Sep-25 14:30 319 4 gusting 11 29.4
2016-Sep-25 14:15 293 3 gusting 9 30.0
2016-Sep-25 14:00 014 3 gusting 13 29.4
2016-Sep-25 13:45 343 4 gusting 12 29.4
2016-Sep-25 13:30 327 4 gusting 11 30.0
2016-Sep-25 13:15 328 3 gusting 11 30.6
2016-Sep-25 13:00 348 3 gusting 9 30.0
2016-Sep-25 12:45 309 3 gusting 11 30.0
2016-Sep-25 12:30 338 4 gusting 9 30.0
2016-Sep-25 12:15 315 2 gusting 8 29.4
2016-Sep-25 12:00 304 3 gusting 7 29.4
2016-Sep-25 11:45 306 2 gusting 7 29.4
2016-Sep-25 11:30 329 2 gusting 10 28.3
2016-Sep-25 11:15 336 3 gusting 9 26.7
2016-Sep-25 11:00 303 3 gusting 9 25.6
2016-Sep-25 10:45 305 3 gusting 9 25.6
2016-Sep-25 10:30 336 3 gusting 6 24.4